www.pogodaiklimat.ru

Погода и климат >> Архив погоды >> Германия >> Ufs Deutsche Bucht


ПОГОДА в Ufs Deutsche Bucht

  • Прогноз погоды в Ufs Deutsche Bucht
  • Монитор погоды в Ufs Deutsche Bucht
  • Климат города

АРХИВ ПОГОДЫ в Ufs Deutsche Bucht

Время (UTC), дата Ветер
(напр.,м/с)
 
Видим.   Явления Облачность Т
(С)
Тd
(С)
f
(%)
Тe
(С)
Тes
(С)
Комфортность P
(гПа)
Po
(гПа)
Тmin
(С)
Tmax
(С)
R
(мм)
R24
(мм)
S
(см)
16 12.09 З 10
{18}
10 км н/о +15.8 +11.1 74 +14 +14 1002.0 1002.0
17 12.09 З 13
{17}
10 км н/о +15.2 +10.1 72 +12 +12 1002.2 1002.2
18 12.09 З 13
{18}
10 км н/о +15.4 +9.7 69 +13 +13 1002.4 1002.4 +11.8 +16.5
19 12.09 З 13
{17}
10 км н/о +16.1 +10.7 70 +14 +14 1002.7 1002.7
20 12.09 З 12
{16}
10 км н/о +16.1 +9.3 64 +14 +14 1003.0 1003.0
21 12.09 З 13
{21}
3900 м н/о +13.6 +8.9 73 +10 +10 1003.3 1003.3
22 12.09 ЮЗ 8
{13}
10 км н/о +15.6 +11.3 76 +14 +14 1002.4 1002.4
23 12.09 ЮЗ 13
{17}
10 км н/о +15.5 +11.7 78 +13 +13 1001.4 1001.4
00 13.09 ЮЗ 13
{21}
10 км н/о +15.4 +11.5 78 +13 +13 1000.2 1000.2
01 13.09 Ю 13
{16}
10 км н/о +14.7 +11.3 80 +12 +12 998.7 998.7
02 13.09 Ю 15
{19}
10 км н/о +14.5 +10.6 77 +11 +11 997.1 997.1
03 13.09 Ю 15
{19}
10 км н/о +13.9 +10.6 80 +10 +10 995.2 995.2
04 13.09 Ю 16
{20}
10 км н/о +13.9 +10.7 81 +10 +10 992.7 992.7
05 13.09 Ю 16
{21}
4900 м н/о +13.7 +11.8 88 +10 +10 990.1 990.1
06 13.09 Ю 18
{24}
10 км н/о +13.6 +11.8 89 +9 +9 987.8 987.8 +12.4 +16.5
07 13.09 Ю 19
{23}
10 км н/о +14.4 +12.4 88 +11 +11 985.4 985.4
08 13.09 Ю 18
{25}
8000 м н/о +15.0 +12.7 86 +12 +12 984.0 984.0
09 13.09 ЮЗ 21
{28}
800 м н/о +14.0 +12.9 93 +10 +10 982.8 982.8
10 13.09 ЮЗ 24
{30}
3400 м н/о +14.9 +11.9 82 +11 +11 982.8 982.8
11 13.09 З 26
{34}
2200 м н/о +14.4 +11.1 81 +10 +10 983.1 983.1
12 13.09 ЮЗ 27
{34}
1100 м н/о +13.6 +11.3 86 +9 +9 983.4 983.4
13 13.09 З 26
{35}
2100 м н/о +14.8 +12.2 84 +11 +11 984.5 984.5
14 13.09 З 26
{36}
800 м н/о +13.6 +12.0 90 +9 +9 986.1 986.1
15 13.09 З 25
{36}
4400 м н/о +14.8 +10.6 76 +11 +11 987.7 987.7
16 13.09 З 23
{33}
2200 м н/о +13.8 +11.0 83 +9 +9 989.3 989.3
17 13.09 З 23
{29}
10 км н/о +15.7 +9.7 67 +12 +12 989.6 989.6
18 13.09 З 22
{36}
3200 м н/о +15.4 +10.5 73 +12 +12 990.4 990.4 +12.7 +16.1
19 13.09 З 21
{27}
10 км н/о +15.6 +10.2 70 +12 +12 991.2 991.2
20 13.09 З 20
{27}
10 км н/о +15.6 +9.1 65 +12 +12 991.5 991.5
21 13.09 З 19
{29}
10 км н/о +15.6 +9.2 66 +12 +12 991.9 991.9
22 13.09 З 18
{25}
10 км н/о +15.6 +9.5 67 +13 +13 992.1 992.1
23 13.09 З 17
{24}
10 км н/о +15.5 +9.2 66 +13 +13 992.2 992.2
00 14.09 З 16
{29}
10 км н/о +15.6 +9.0 65 +13 +13 992.2 992.2
01 14.09 З 15
{20}
10 км н/о +15.5 +9.2 66 +13 +13 992.0 992.0
02 14.09 З 15
{20}
10 км н/о +15.4 +8.7 64 +13 +13 991.9 991.9
03 14.09 З 15
{20}
10 км н/о +15.1 +9.0 67 +12 +12 991.8 991.8
04 14.09 З 15
{19}
10 км н/о +15.1 +8.3 64 +12 +12 991.8 991.8
05 14.09 З 15
{19}
10 км н/о +15.0 +8.4 65 +12 +12 991.8 991.8
06 14.09 З 15
{20}
10 км н/о +15.2 +8.8 66 +12 +12 991.6 991.6 +14.2 +15.9
07 14.09 З 15
{20}
500 м н/о +14.7 +9.5 71 +12 +12 991.8 991.8
08 14.09 З 15
{20}
10 км н/о +14.9 +8.7 66 +12 +12 992.0 992.0
09 14.09 З 14
{20}
10 км н/о +14.8 +9.4 70 +12 +12 992.5 992.5
10 14.09 ЮЗ 14
{21}
10 км н/о +14.3 +9.9 75 +11 +11 992.9 992.9
11 14.09 ЮЗ 11
{18}
10 км н/о +14.4 +9.4 72 +12 +12 993.3 993.3
12 14.09 ЮЗ 12
{21}
10 км н/о +13.8 +10.5 80 +11 +11 993.9 993.9
13 14.09 ЮЗ 10
{14}
10 км н/о +14.0 +10.4 79 +11 +11 994.6 994.6
14 14.09 ЮЗ 7
{13}
10 км н/о +13.9 +10.5 80 +12 +12 995.3 995.3
15 14.09 СЗ 4
{15}
10 км н/о +14.9 +11.1 78 +14 +14 996.2 996.2
16 14.09 С 10
{13}
9000 м н/о +15.2 +11.5 79 +13 +13 997.0 997.0
17 14.09 СЗ 11
{13}
10 км н/о +15.9 +11.5 75 +14 +14 998.0 998.0
18 14.09 С 10
{17}
10 км н/о +15.7 +11.8 78 +14 +14 999.1 999.1 +12.8 +16.1
19 14.09 СЗ 14
{18}
10 км н/о +15.4 +10.6 73 +13 +13 1000.5 1000.5
20 14.09 СЗ 14
{19}
10 км н/о +15.6 +10.6 72 +13 +13 1001.6 1001.6
21 14.09 СЗ 14
{19}
10 км н/о +15.3 +9.8 70 +13 +13 1002.5 1002.5
22 14.09 СЗ 13
{18}
10 км н/о +15.4 +9.2 67 +13 +13 1003.5 1003.5
23 14.09 СЗ 11
{17}
10 км н/о +15.6 +10.3 71 +13 +13 1004.5 1004.5
00 15.09 З 11
{19}
10 км н/о +15.3 +8.0 62 +13 +13 1004.9 1004.9
01 15.09 З 14
{19}
4400 м н/о +13.0 +8.8 76 +9 +9 1005.3 1005.3
02 15.09 З 8
{16}
10 км н/о +14.5 +8.8 69 +12 +12 1005.5 1005.5
03 15.09 З 11
{19}
10 км н/о +14.3 +8.3 67 +12 +12 1005.5 1005.5
04 15.09 З 11
{16}
10 км н/о +14.8 +8.9 68 +12 +12 1005.5 1005.5
05 15.09 З 9
{17}
10 км н/о +14.4 +8.9 70 +12 +12 1005.6 1005.6
06 15.09 З 9
{19}
7000 м н/о +14.8 +8.6 66 +13 +13 1005.6 1005.6 +12.4 +16.1
07 15.09 З 11
{16}
10 км н/о +14.8 +8.4 65 +12 +12 1005.8 1005.8
08 15.09 З 12
{18}
800 м н/о +15.2 +8.5 64 +13 +13 1006.0 1006.0
09 15.09 ЮЗ 12
{18}
10 км н/о +15.2 +8.9 66 +13 +13 1006.1 1006.1
10 15.09 ЮЗ 14
{18}
10 км н/о +14.5 +10.8 78 +11 +11 1006.3 1006.3
11 15.09 ЮЗ 14
{18}
10 км н/о +14.6 +10.5 76 +11 +11 1006.3 1006.3
12 15.09 З 12
{19}
3400 м н/о +14.1 +11.2 83 +11 +11 1006.7 1006.7
13 15.09 ЮЗ 13
{18}
3200 м н/о +13.8 +10.3 79 +10 +10 1006.6 1006.6
14 15.09 ЮЗ 12
{16}
7000 м н/о +14.2 +9.8 75 +11 +11 1006.3 1006.3
15 15.09 ЮЗ 11
{19}
9000 м н/о +14.4 +10.5 77 +12 +12 1006.2 1006.2
16 15.09 З 10
{14}
10 км н/о +14.4 +10.0 75 +12 +12 1006.1 1006.1
17 15.09 З 10 10 км н/о +14.6 +9.3 70 +12 +12 1006.0 1006.0
18 15.09 З 7
{19}
10 км н/о +14.9 +10.9 77 +13 +13 1006.2 1006.2 +12.7 +15.4
19 15.09 ЮЗ 7 10 км н/о +15.0 +10.7 75 +13 +13 1006.3 1006.3
20 15.09 З 7 10 км н/о +14.9 +10.5 75 +13 +13 1006.4 1006.4
21 15.09 З 7 10 км н/о +15.1 +10.3 73 +13 +13 1006.3 1006.3
22 15.09 ЮЗ 10 10 км н/о +14.6 +11.9 84 +12 +12 1006.3 1006.3
23 15.09 ЮЗ 5 10 км н/о +14.5 +11.6 83 +13 +13 1006.4 1006.4
00 16.09 З 3 10 км н/о +15.0 +10.7 75 +14 +14 1006.3 1006.3
01 16.09 СЗ 4 10 км н/о +14.9 +10.7 76 +14 +14 1006.2 1006.2
02 16.09 С 2 10 км н/о +14.7 +10.7 77 +14 +14 1005.9 1005.9
03 16.09 СЗ 5 10 км н/о +14.2 +9.8 75 +13 +13 1005.8 1005.8
04 16.09 С 3 10 км н/о +14.6 +11.1 80 +14 +14 1005.7 1005.7
05 16.09 С 3 10 км н/о +15.2 +10.3 73 +15 +15 1005.7 1005.7
06 16.09 С 4 8000 м н/о +14.4 +9.8 74 +13 +13 1006.1 1006.1 +13.8 +15.4
07 16.09 ЮЗ 4 10 км н/о +13.8 +10.8 82 +12 +12 1006.5 1006.5
08 16.09 З 8 10 км н/о +13.5 +9.2 75 +11 +11 1007.2 1007.2
09 16.09 СЗ 5 10 км н/о +13.7 +10.0 78 +12 +12 1007.7 1007.7
10 16.09 СЗ 3 10 км н/о +14.1 +10.4 78 +13 +13 1008.2 1008.2
11 16.09 СЗ 5 10 км н/о +14.1 +8.9 71 +12 +12 1008.6 1008.6
12 16.09 З 4 10 км н/о +14.2 +9.8 75 +13 +13 1008.7 1008.7
13 16.09 З 4 10 км н/о +14.3 +10.1 76 +13 +13 1008.8 1008.8
14 16.09 ЮЗ 4 10 км н/о +14.5 +9.8 73 +13 +13 1009.0 1009.0
15 16.09 З 3 10 км н/о +14.5 +9.8 73 +14 +14 1009.2 1009.2
16 16.09 З 3 10 км н/о +14.6 +10.0 74 +14 +14 1009.3 1009.3
17 16.09 З 1 10 км н/о +14.8 +9.6 71 +15 +15 1009.7 1009.7
18 16.09 Ю 7 4800 м н/о +12.8 +9.9 83 +10 +10 1010.5 1010.5 +12.6 +15.4
19 16.09 ЮЗ 3 9000 м н/о +12.7 +10.1 84 +11 +11 1010.8 1010.8
20 16.09 З 3 10 км н/о +13.1 +10.3 83 +12 +12 1011.1 1011.1
21 16.09 ЮЗ 3 10 км н/о +13.2 +10.2 82 +12 +12 1011.2 1011.2
22 16.09 ЮЗ 3 10 км н/о +13.4 +9.8 79 +12 +12 1011.5 1011.5
23 16.09 Ю 3 10 км н/о +13.3 +9.6 78 +12 +12 1011.6 1011.6
00 17.09 ЮЗ 3 10 км н/о +13.4 +10.0 80 +12 +12 1011.7 1011.7
01 17.09 ЮЗ 3 10 км н/о +13.4 +9.8 79 +12 +12 1011.7 1011.7
02 17.09 ЮЗ 3 10 км н/о +13.5 +8.2 70 +12 +12 1011.5 1011.5
03 17.09 ЮЗ 4 10 км н/о +13.2 +9.6 79 +12 +12 1011.4 1011.4
04 17.09 ЮЗ 3 10 км н/о +13.5 +9.7 78 +12 +12 1011.2 1011.2
05 17.09 ЮЗ 3 10 км н/о +13.5 +10.1 80 +12 +12 1011.5 1011.5
06 17.09 Ю 3 9000 м н/о +13.1 +9.6 79 +12 +12 1011.8 1011.8 +12.3 +15.0
07 17.09 ЮЗ 5 9000 м н/о +12.7 +9.9 83 +10 +10 1012.0 1012.0
08 17.09 ЮЗ 5 10 км н/о +12.6 +10.1 85 +10 +10 1012.3 1012.3
09 17.09 ЮЗ 6 10 км н/о +12.8 +10.2 84 +10 +10 1012.4 1012.4
10 17.09 ЮЗ 8 9000 м н/о +12.9 +10.5 85 +10 +10 1012.5 1012.5
11 17.09 ЮЗ 6 10 км н/о +12.5 +9.8 84 +10 +10 1012.9 1012.9
12 17.09 ЮЗ 7 10 км н/о +12.9 +10.4 85 +10 +10 1012.8 1012.8
13 17.09 ЮЗ 5 10 км н/о +11.9 +8.7 81 +9 +9 1013.0 1013.0
14 17.09 З 3 10 км н/о +12.4 +8.9 79 +11 +11 1012.7 1012.7
15 17.09 ЮЗ 2 10 км н/о +13.0 +9.0 77 +12 +12 1012.5 1012.5
16 17.09 Ю 2 10 км н/о +13.4 +9.6 78 +13 +13 1012.3 1012.3
17 17.09 Ю 2 10 км н/о +13.5 +9.0 74 +13 +13 1012.4 1012.4
18 17.09 В 3 10 км н/о +13.6 +9.6 77 +12 +12 1012.4 1012.4 +11.7 +13.8
19 17.09 ЮВ 4 10 км н/о +14.0 +9.2 73 +13 +13 1012.8 1012.8
20 17.09 Ю 9 10 км н/о +12.4 +9.3 81 +9 +9 1012.7 1012.7
21 17.09 ЮЗ 6 6000 м н/о +11.9 +8.4 79 +9 +9 1012.7 1012.7
22 17.09 Ю 4 10 км н/о +12.3 +7.7 73 +10 +10 1012.8 1012.8
23 17.09 ЮВ 7 10 км н/о +12.1 +8.6 79 +9 +9 1012.9 1012.9
00 18.09 ЮВ 4 10 км н/о +12.9 +8.5 75 +11 +11 1012.5 1012.5
01 18.09 Ю 4 10 км н/о +13.4 +8.4 72 +12 +12 1012.2 1012.2
02 18.09 ЮВ 3 10 км н/о +13.6 +8.8 73 +13 +13 1012.3 1012.3
03 18.09 Ю 7 10 км н/о +13.1 +9.6 79 +11 +11 1012.5 1012.5
04 18.09 ЮВ 5 10 км н/о +13.0 +9.3 78 +11 +11 1012.4 1012.4
05 18.09 ЮВ 6 10 км н/о +13.0 +8.6 75 +11 +11 1012.2 1012.2
06 18.09 ЮВ 5 10 км н/о +13.1 +9.2 77 +11 +11 1012.6 1012.6 +11.2 +14.4
07 18.09 Ю 5 10 км н/о +12.8 +9.0 78 +11 +11 1012.8 1012.8
08 18.09 ЮВ 4 10 км н/о +12.9 +8.6 75 +11 +11 1013.0 1013.0
09 18.09 ЮВ 5 2900 м н/о +13.0 +9.0 77 +11 +11 1013.1 1013.1
10 18.09 ЮВ 4 10 км н/о +13.1 +8.2 72 +11 +11 1013.3 1013.3
11 18.09 ЮВ 3 10 км н/о +13.5 +7.9 69 +12 +12 1013.5 1013.5
12 18.09 ЮВ 3 10 км н/о +13.8 +8.3 69 +13 +13 1013.7 1013.7
13 18.09 ЮВ 3 10 км н/о +13.9 +8.8 71 +13 +13 1013.9 1013.9
14 18.09 ЮВ 3 10 км н/о +14.0 +8.9 71 +13 +13 1013.8 1013.8
15 18.09 В 2 10 км н/о +14.0 +9.0 72 +14 +14 1013.9 1013.9
16 18.09 В 3 10 км н/о +14.3 +9.2 71 +13 +13 1013.8 1013.8
17 18.09 В 3 7000 м н/о +14.4 +8.4 67 +14 +14 1014.1 1014.1
18 18.09 В 2 10 км н/о +14.4 +9.1 70 +14 +14 1014.3 1014.3 +12.6 +14.7
19 18.09 ЮВ 3 10 км н/о +14.3 +8.8 69 +13 +13 1014.6 1014.6
20 18.09 В 2 10 км н/о +14.4 +8.6 68 +14 +14 1014.9 1014.9
21 18.09 В 2 10 км н/о +14.2 +8.7 69 +14 +14 1014.9 1014.9
22 18.09 СВ 2 10 км н/о +14.1 +8.9 71 +14 +14 1014.9 1014.9
23 18.09 В 2 10 км н/о +14.3 +9.0 70 +14 +14 1014.9 1014.9
00 19.09 СВ 2 10 км н/о +14.2 +8.9 70 +14 +14 1015.0 1015.0
01 19.09 СЗ 1 10 км н/о +14.1 +8.1 67 +15 +15 1014.8 1014.8
02 19.09 СЗ 1 10 км н/о +14.0 +7.8 66 +14 +14 1014.8 1014.8
03 19.09 СЗ 1 10 км н/о +14.2 +7.8 65 +15 +15 1014.9 1014.9
04 19.09 СЗ 1 10 км н/о +14.4 +8.6 68 +15 +15 1015.0 1015.0
05 19.09 З 3 10 км н/о +14.5 +9.0 70 +14 +14 1015.0 1015.0
06 19.09 З 4 10 км н/о +14.6 +8.9 69 +13 +13 1015.0 1015.0 +13.9 +14.8
07 19.09 З 9 10 км н/о +14.0 +8.8 71 +11 +11 1015.2 1015.2
08 19.09 З 3 10 км н/о +13.9 +9.7 76 +13 +13 1015.6 1015.6
09 19.09 З 3 10 км н/о +14.8 +9.3 70 +14 +14 1015.8 1015.8
11 19.09 З 5 10 км н/о +14.3 +9.5 73 +13 +13 1016.1 1016.1
12 19.09 З 5 10 км н/о +15.1 +10.3 73 +14 +14 1016.3 1016.3
14 19.09 СЗ 10
{13}
10 км н/о +14.4 +10.8 79 +12 +12 1016.2 1016.2
13 19.09 СЗ 7 10 км н/о +15.5 +9.9 69 +14 +14 1016.3 1016.3

 

Местоположение метеостанции Ufs Deutsche Bucht (Германия): широта 54.18 долгота 7.43 высота над уровнем моря 3 м.

В архиве по умолчанию представлена погода в Ufs Deutsche Bucht за последнюю неделю. Архивные данные за месяц целиком и за предыдущие месяцы, начиная с января 2011 года, Вы можете получить, выбрав интересующий диапазон дат из раскрывающегося списка и нажав кнопку "Ввод!".

Внимание! Время в таблицах - всемирное. Для получения местного времени необходимо прибавить поправку, которая в Ufs Deutsche Bucht равна 1 ч.

Смотрите также архив погоды в соседних городах и на ближайших метеорологических станциях:

Погода в Helgoland (Германия) (31 км)
Погода в Norderney Island (Германия) (54 км)
Погода в Leuchtturm Alte Weser (Германия) (57 км)
Погода в Ufs Tw Ems (Германия) (70 км)
Погода в Wittmundhaven (Германия) (72 км)
Погода в St Peter-Ording (Германия) (78 км)
Погода в Cuxhaven (Германия) (90 км)
Погода в Emden-Flugplatz (Германия) (90 км)
Погода в Nordholz (Германия) (93 км)
Погода в Huibertgat (Нидерланды) (96 км)

Пояснения к столбцам:

Ветер - указаны скорость ветра в м/с - средняя за 10 мин, порывы в срок и между сроками (в фигурных скобках) и направление, откуда дует ветер: С - северный, СВ - северо-восточный, В - восточный, ЮВ - юго-восточный, Ю - южный, ЮЗ - юго-западный, З - западный, СЗ - северо-западный.
Видимость - горизонтальная дальность видимости в метрах или километрах. При видимости от 1 до 10 км при отсутствии осадков обычно наблюдается дымка, при ухудшении видимости до 1 км и менее - туман. В сухую погоду видимость может ухудшаться дымом, пылью или мглою.
Явления - указаны атмосферные явления, наблюдавшиеся в срок или в последний час перед сроком; фигурными скобками обозначены явления, наблюдавшиеся между сроками (за 1-3 часа до срока); квадратными скобками обозначены град или гололедные отложения с указанием их диаметра в мм.
Облачность - указаны через наклонную черту общая и нижняя облачность в баллах и высота нижней границы облаков в метрах; квадратными скобками обозначены формы облаков: Ci - перистые, Cs - перисто-слоистые, Cc - перисто-кучевые, Ac - высококучевые, As - высокослоистые, Sc - слоисто-кучевые, Ns - слоисто-дождевые, Cu - кучевые, Cb - кучево-дождевые. Подробнее классификацию облаков см. в Атласе облаков (PDF).
T - Температура воздуха - температура, измеренная на высоте 2 м над землей.
Td - Температура точки росы - температура, при понижении до которой содержащийся в воздухе водяной пар достигнет насыщения.
f - Относительная влажность воздуха - влажноcть воздуха, измеренная на высоте 2 м над землей.
Te - Эффективная температура - температура, которую ощущает одетый по сезону человек в тени. Характеристика душности погоды. При расчете учитывается влияние влажности воздуха и скорости ветра на теплоощущения человека.
Tes - Эффективная температура на солнце - температура, которую ощущает человек, с поправкой на солнечный нагрев. Характеристика знойности погоды. Зависит от высоты солнца над горизонтом, облачности и скорости ветра. Ночью, в пасмурную погоду, а также при ветре 12 м/с и более поправка равна нулю.
P - Атмосферное давление - приведенное к уровню моря атмосферное давление.
Po - Атмосферное давление - измеренное на уровне метеостанции атмосферное давление.
Tmin - Минимальная температура - минимум температуры воздуха на высоте 2 м над землей.
Tmax - Максимальная температура - максимум температуры воздуха на высоте 2 м над землей.
R - Количество осадков - Количество выпавших осадков за период времени, мм. При наведении курсора мыши на число - период времени, за который выпало указанное количество осадков.
R24 - Количество осадков - Количество выпавших осадков за 24 часа, мм.
S - Снежный покров - Высота снежного покрова, см. При наведении курсора мыши на число - состояние снежного покрова и степень покрытия местности в баллах.